Regional Weather Roundup
Issued by NWS

Home | Current Version | Previous Version | Graphics & Text | Print | Product List | Glossary Off
Versions: 1 2 3 4 5 6 7 8 9 10 11 12 13 14 15 16 17 18 19 20 21 22 23 24 25 26 27 28 29 30 31 32 33 34 35 36 37 38 39 40 41 42 43 44 45 46 47 48 49 50

000
ASUS43 KDMX 221601
RWRIA

WEATHER ROUNDUP FOR IOWA
NATIONAL WEATHER SERVICE DES MOINES IA
1100 AM CDT MON MAY 22 2017

NOTE: "FAIR" INDICATES FEW OR NO CLOUDS BELOW 12,000 FEET WITH NO
SIGNIFICANT WEATHER AND/OR OBSTRUCTIONS TO VISIBILITY.

* - THESE STATIONS ARE NOT NWS STATIONS...THUS NOT UNDER NWS
QUALITY CONTROL.  THEY ALSO DO NOT REPORT WEATHER SUCH
AS PRECIPITATION OR FOG.

IAZ001>003-012>014-020>022-031>034-043>046-221700-
   NORTHWEST IOWA

CITY           SKY/WX    TMP DP  RH WIND       PRES   REMARKS
CARROLL *      SUNNY     66  52  59 W13G21    29.90F
CHEROKEE *     SUNNY     64  52  64 NW7       29.89S
DENISON *      SUNNY     64  50  59 W13       29.93S
LE MARS *      SUNNY     64  52  63 W10       29.90F
ORANGE CITY *  SUNNY     63  54  72 W10       29.89S
SHELDON *        N/A     61  52  72 W7          N/A
SIOUX CITY     SUNNY     66  52  60 W6        29.90F
SPENCER        MOSUNNY   64  52  64 W10       29.88F
STORM LAKE *   SUNNY     63  50  63 W14G22    29.90S
$$

IAZ055>058-069>071-079>083-090>094-221700-
   SOUTHWEST IOWA

CITY           SKY/WX    TMP DP  RH WIND       PRES   REMARKS
ATLANTIC *     CLOUDY    64  54  68 SW10      29.93F
AUDUBON *      SUNNY     64  54  68 SW9       29.92F
CLARINDA *     MOSUNNY   63  57  82 SW12      29.99R
COUNCIL BLFS * MOSUNNY   66  52  59 W9        29.94S
CRESTON *      PTSUNNY   63  55  77 SW9G16    29.96F
HARLAN  *      SUNNY     64  50  59 W13       29.96F
LAMONI         PTSUNNY   60  55  83 SW13      29.97F
RED OAK *      MOSUNNY   63  55  77 W10G16    29.95S
SHENANDOAH *   PTSUNNY   63  57  82 SW13      29.98R
$$

IAZ047>049-059>061-072>074-084-221700-
   CENTRAL IOWA

CITY           SKY/WX    TMP DP  RH WIND       PRES   REMARKS
AMES           CLOUDY    65  54  67 SW15      29.89F
ANKENY *       CLOUDY    64  52  63 W10       29.93F
BOONE *        SUNNY     64  54  68 SW15      29.90S
DES MOINES     CLOUDY    67  52  58 SW14      29.92S
GRINNELL*      CLOUDY    65  50  59 SW20      29.93F
MARSHALLTOWN   PTSUNNY   62  51  67 SW14      29.90F
NEWTON *       CLOUDY    64  50  59 SW14G21   29.92R
PELLA *        CLOUDY    65  50  58 SW9G20    29.95S
PERRY *          N/A     66  54  65 W17       29.92S
$$

IAZ004>006-015-016-023>025-035-036-221700-
   NORTH CENTRAL IOWA

CITY           SKY/WX    TMP DP  RH WIND       PRES   REMARKS
ALGONA *       SUNNY     63  52  67 W8        29.88F
CLARION *      SUNNY     63  54  72 SW12      29.88F
ESTHERVILLE    SUNNY     61  50  67 N6        29.87F
FORT DODGE *   SUNNY     64  54  68 W10       29.90S
MASON CITY     SUNNY     60  50  69 SW12      29.90F
FOREST CITY *    N/A     63  45  51 W7        29.89S
WEBSTER CITY * SUNNY     63  52  67 SW12      29.87S
IOWA FALLS *   PTSUNNY   63  52  68 SW10      29.90F
$$

IAZ007>011-017>019-026>030-037>042-050>054-066-221700-
   NORTHEAST IOWA

CITY           SKY/WX    TMP DP  RH WIND       PRES   REMARKS
CEDAR RAPIDS   CLOUDY    60  52  74 SE8       29.92F
CHARLES CITY * PTSUNNY   54  54 100 W5        29.91R
CLINTON *      MOSUNNY   66  52  60 W10       29.98F
DECORAH *      PTSUNNY   54  48  82 SW3       29.89F
DUBUQUE        CLOUDY    59  49  69 W13       29.97S
MONTICELLO *   LGT RAIN  57  48  72 W5        29.97R
OELWEIN *      CLOUDY    54  52  94 S7        29.93F
WATERLOO       PTSUNNY   59  50  72 VRB7      29.91F
$$

IAZ064-065-067-068-078-221700-
   EAST CENTRAL IOWA

CITY           SKY/WX    TMP DP  RH WIND       PRES   REMARKS
DAVENPORT      SUNNY     67  49  52 SW17G25   29.97F
IOWA CITY      CLOUDY    69  49  48 SW12G22   29.95F
MT. PLEASANT * SUNNY     67  49  51 S18       29.98F
MUSCATINE *    PTSUNNY   70  50  49 SW17G26   29.97F
QUAD CITIES    MOSUNNY   69  47  45 SW16G30   29.96F
$$

IAZ062-063-075>077-085>089-095>099-221700-
   SOUTHEAST IOWA

CITY           SKY/WX    TMP DP  RH WIND       PRES   REMARKS
BURLINGTON     SUNNY     69  51  52 SW18G26   29.99F
FAIRFIELD *    CLOUDY    66  48  52 S16       29.96F
FORT MADISON * SUNNY     70  54  56 SW17      30.00F
KEOKUK *       SUNNY     70  52  52 S15G21    30.00F
OSKALOOSA *      N/A     67  51  57 SW22      29.95S
OTTUMWA        CLOUDY    65  50  58 S16       29.95F
WASHINGTON *   MOSUNNY   68  50  52 SW17G28   29.97F
$$

ABBREVIATIONS USED IN REMARKS
   TC - TEMPERATURES IN CELSIUS
  WCI - WIND CHILL INDEX
   HX - HEAT INDEX
  VSB - VISIBILITY
$$





USA.gov is the U.S. government's official web portal to all federal, state and local government web resources and services.